Location: Skalnate Pleso
(49.1889°N, 20.2450°E)
Time: 20:36:21
(UTC+01:00)

Cosmos 2322 Rocket - Pass Details

Date: 19 November 2019
Orbit: 833 x 851 km, 71.0° (Epoch: 06 December)

Event Time Altitude Azimuth Distance (km) Brightness Sun altitude
Exits shadow 05:33:06 17° 301° (WNW) 2,010 3.6 -13.2°
Maximum altitude 05:36:11 27° 256° (WSW) 1,562 3.1 -12.7°
Drops below altitude 10° 05:40:52 10° 200° (SSW) 2,466 4.6 -11.9°
Sets 05:43:38 0° 189° (S) 3,399 5.4 -11.5°
